• In Belarus
  • List of Countries
  • For 7 days
  • Water Temperature
  • Satellite Maps
  • Weather Map
  • Weather Widgets
  • user-avatar
    Login

    Hourly Weather Budilovo

    Today, 19 May, Sunday

    Time Temperature Precipitation Wind Pressure Humidity
    00:00 +10°C° 0 mm 2 mps 745 mmHg 80%
    01:00 +10°C° 0 mm 1 mps 746 mmHg 80%
    02:00 +9°C° 0 mm 1 mps 745 mmHg 82%
    03:00 +9°C° 0 mm 1 mps 746 mmHg 80%
    04:00 +10°C° 0 mm 1 mps 746 mmHg 78%
    05:00 +10°C° 0 mm 1 mps 746 mmHg 75%
    06:00 +12°C° 0 mm 1 mps 746 mmHg 67%
    07:00 +14°C° 0 mm 1 mps 746 mmHg 58%
    08:00 +16°C° 0 mm 1 mps 746 mmHg 49%
    09:00 +18°C° 0 mm 2 mps 746 mmHg 47%
    10:00 +19°C° 0 mm 2 mps 746 mmHg 45%
    11:00 +20°C° 0 mm 2 mps 746 mmHg 43%
    12:00 +20°C° 0 mm 2 mps 746 mmHg 42%
    13:00 +21°C° 0 mm 3 mps 746 mmHg 41%
    14:00 +21°C° 0 mm 3 mps 746 mmHg 41%
    15:00 +21°C° 0 mm 2 mps 746 mmHg 42%
    16:00 +21°C° 0 mm 2 mps 746 mmHg 44%
    17:00 +21°C° 0 mm 2 mps 746 mmHg 46%
    18:00 +18°C° 0 mm 2 mps 746 mmHg 54%
    19:00 +16°C° 0 mm 1 mps 746 mmHg 62%
    20:00 +14°C° 0 mm 1 mps 746 mmHg 70%
    21:00 +13°C° 0 mm 1 mps 746 mmHg 72%
    22:00 +12°C° 0 mm 1 mps 746 mmHg 75%
    23:00 +11°C° 0 mm 1 mps 747 mmHg 77%

    Tomorrow, 20 May, Monday

    Time Temperature Precipitation Wind Pressure Humidity
    00:00 +10°C° 0 mm 1 mps 747 mmHg 79%
    01:00 +10°C° 0 mm 1 mps 747 mmHg 81%
    02:00 +9°C° 0 mm 1 mps 747 mmHg 83%
    03:00 +9°C° 0 mm 1 mps 747 mmHg 80%
    04:00 +10°C° 0 mm 1 mps 748 mmHg 78%
    05:00 +11°C° 0 mm 1 mps 748 mmHg 76%
    06:00 +13°C° 0 mm 1 mps 748 mmHg 66%
    07:00 +15°C° 0 mm 1 mps 748 mmHg 57%
    08:00 +18°C° 0 mm 1 mps 748 mmHg 47%
    09:00 +20°C° 0 mm 1 mps 748 mmHg 42%
    10:00 +22°C° 0 mm 1 mps 748 mmHg 38%
    11:00 +23°C° 0 mm 1 mps 748 mmHg 33%
    12:00 +24°C° 0 mm 1 mps 748 mmHg 33%
    13:00 +23°C° 0 mm 0 mps 747 mmHg 32%
    14:00 +23°C° 0 mm 0 mps 747 mmHg 32%
    15:00 +23°C° 0 mm 0 mps 747 mmHg 34%
    16:00 +22°C° 0 mm 0 mps 747 mmHg 36%
    17:00 +23°C° 0 mm 1 mps 746 mmHg 38%
    18:00 +21°C° 0 mm 1 mps 746 mmHg 45%
    19:00 +18°C° 0 mm 1 mps 746 mmHg 53%
    20:00 +15°C° 0 mm 2 mps 746 mmHg 60%
    21:00 +15°C° 0 mm 2 mps 746 mmHg 61%
    22:00 +14°C° 0 mm 2 mps 746 mmHg 63%
    23:00 +13°C° 0 mm 2 mps 746 mmHg 64%

    Day after tomorrow, 21 May, Tuesday

    Time Temperature Precipitation Wind Pressure Humidity
    00:00 +13°C° 0 mm 2 mps 746 mmHg 66%
    01:00 +13°C° 0 mm 2 mps 746 mmHg 68%
    02:00 +13°C° 0 mm 2 mps 746 mmHg 70%
    03:00 +13°C° 0 mm 2 mps 746 mmHg 73%
    04:00 +13°C° 0 mm 2 mps 746 mmHg 75%
    05:00 +14°C° 0 mm 2 mps 745 mmHg 78%
    06:00 +16°C° 0 mm 2 mps 745 mmHg 71%
    07:00 +18°C° 0 mm 3 mps 745 mmHg 65%
    08:00 +20°C° 0 mm 3 mps 745 mmHg 59%
    09:00 +21°C° 0 mm 3 mps 745 mmHg 54%
    10:00 +22°C° 0 mm 4 mps 745 mmHg 49%
    11:00 +23°C° 0 mm 4 mps 744 mmHg 45%
    12:00 +23°C° 0 mm 4 mps 744 mmHg 43%
    13:00 +25°C° 0 mm 4 mps 744 mmHg 42%
    14:00 +25°C° 0 mm 4 mps 743 mmHg 41%
    15:00 +25°C° 0 mm 3 mps 743 mmHg 43%
    16:00 +24°C° 0 mm 3 mps 742 mmHg 45%
    17:00 +24°C° 0 mm 2 mps 742 mmHg 47%
    18:00 +21°C° 0 mm 2 mps 742 mmHg 53%
    19:00 +19°C° 0 mm 2 mps 742 mmHg 58%
    20:00 +17°C° 0 mm 2 mps 742 mmHg 64%
    21:00 +16°C° 0 mm 2 mps 741 mmHg 67%
    22:00 +15°C° 0 mm 2 mps 741 mmHg 69%
    23:00 +14°C° 0 mm 2 mps 741 mmHg 72%

    22 May, Wednesday

    Time Temperature Precipitation Wind Pressure Humidity
    00:00 +14°C° 0 mm 2 mps 741 mmHg 78%
    01:00 +14°C° 0 mm 2 mps 741 mmHg 84%
    02:00 +13°C° 0 mm 2 mps 741 mmHg 90%
    03:00 +14°C° 0.3 mm 2 mps 740 mmHg 92%
    04:00 +14°C° 0.3 mm 2 mps 740 mmHg 93%
    05:00 +15°C° 0.3 mm 2 mps 740 mmHg 94%
    06:00 +15°C° 0.7 mm 1 mps 740 mmHg 94%
    07:00 +16°C° 0.7 mm 1 mps 740 mmHg 94%
    08:00 +18°C° 0.7 mm 1 mps 740 mmHg 93%
    09:00 +19°C° 1.4 mm 1 mps 739 mmHg 89%
    10:00 +19°C° 1.4 mm 2 mps 739 mmHg 84%
    11:00 +21°C° 1.4 mm 2 mps 739 mmHg 80%
    12:00 +21°C° 1 mm 2 mps 738 mmHg 79%
    13:00 +21°C° 1 mm 2 mps 738 mmHg 78%
    14:00 +21°C° 1 mm 2 mps 738 mmHg 77%
    15:00 +21°C° 1.2 mm 2 mps 737 mmHg 81%
    16:00 +20°C° 1.2 mm 2 mps 737 mmHg 85%
    17:00 +19°C° 1.2 mm 2 mps 737 mmHg 89%
    18:00 +19°C° 0.6 mm 1 mps 737 mmHg 90%
    19:00 +19°C° 0.6 mm 1 mps 737 mmHg 91%
    20:00 +18°C° 0.6 mm 1 mps 737 mmHg 92%
    21:00 +16°C° 0 mm 1 mps 736 mmHg 93%
    22:00 +16°C° 0 mm 1 mps 736 mmHg 94%
    23:00 +15°C° 0 mm 1 mps 736 mmHg 96%

    23 May, Thursday

    Time Temperature Precipitation Wind Pressure Humidity
    00:00 +15°C° 0.1 mm 1 mps 736 mmHg 96%
    01:00 +14°C° 0.1 mm 1 mps 736 mmHg 97%
    02:00 +14°C° 0.1 mm 1 mps 736 mmHg 97%
    03:00 +13°C° 0.1 mm 2 mps 736 mmHg 97%
    04:00 +13°C° 0.1 mm 2 mps 736 mmHg 97%
    05:00 +12°C° 0.1 mm 3 mps 736 mmHg 97%
    06:00 +12°C° 0 mm 3 mps 736 mmHg 95%
    07:00 +12°C° 0 mm 3 mps 736 mmHg 93%
    08:00 +12°C° 0 mm 3 mps 737 mmHg 92%
    09:00 +13°C° 0 mm 3 mps 737 mmHg 89%
    10:00 +13°C° 0 mm 3 mps 737 mmHg 86%
    11:00 +13°C° 0 mm 3 mps 737 mmHg 83%
    12:00 +16°C° 0 mm 3 mps 737 mmHg 74%
    13:00 +18°C° 0 mm 3 mps 737 mmHg 64%
    14:00 +20°C° 0 mm 3 mps 737 mmHg 55%
    15:00 +19°C° 0 mm 3 mps 738 mmHg 57%
    16:00 +18°C° 0 mm 3 mps 738 mmHg 60%
    17:00 +17°C° 0 mm 3 mps 738 mmHg 62%
    18:00 +16°C° 0 mm 3 mps 738 mmHg 65%
    19:00 +13°C° 0 mm 3 mps 738 mmHg 68%
    20:00 +12°C° 0 mm 3 mps 739 mmHg 71%
    21:00 +11°C° 0 mm 3 mps 739 mmHg 69%
    22:00 +9°C° 0 mm 3 mps 739 mmHg 67%
    23:00 +8°C° 0 mm 3 mps 739 mmHg 65%

    24 May, Friday

    Time Temperature Precipitation Wind Pressure Humidity
    00:00 +7°C° 0 mm 3 mps 739 mmHg 66%
    01:00 +5°C° 0 mm 3 mps 739 mmHg 67%
    02:00 +5°C° 0 mm 3 mps 739 mmHg 68%
    03:00 +5°C° 0 mm 3 mps 739 mmHg 69%
    04:00 +5°C° 0 mm 3 mps 739 mmHg 69%
    05:00 +7°C° 0 mm 3 mps 739 mmHg 69%
    06:00 +8°C° 0 mm 3 mps 739 mmHg 65%
    07:00 +10°C° 0 mm 3 mps 739 mmHg 62%
    08:00 +11°C° 0 mm 3 mps 739 mmHg 58%
    09:00 +12°C° 0 mm 4 mps 739 mmHg 56%
    10:00 +14°C° 0 mm 4 mps 739 mmHg 55%
    11:00 +15°C° 0 mm 4 mps 738 mmHg 53%
    12:00 +14°C° 0 mm 3 mps 738 mmHg 58%
    13:00 +14°C° 0 mm 3 mps 738 mmHg 63%
    14:00 +13°C° 0 mm 3 mps 737 mmHg 68%
    15:00 +12°C° 0.3 mm 3 mps 737 mmHg 74%
    16:00 +11°C° 0.3 mm 3 mps 737 mmHg 79%
    17:00 +11°C° 0.3 mm 3 mps 736 mmHg 85%
    18:00 +10°C° 1.2 mm 3 mps 736 mmHg 88%
    19:00 +9°C° 1.2 mm 3 mps 736 mmHg 91%
    20:00 +8°C° 1.2 mm 4 mps 736 mmHg 94%
    21:00 +7°C° 0.5 mm 4 mps 736 mmHg 94%
    22:00 +7°C° 0.5 mm 4 mps 735 mmHg 94%
    23:00 +6°C° 0.5 mm 4 mps 735 mmHg 94%
    Show more